Location: Sabalos
(43.2860°N, 0.1414°E)
Time: 10:28:43
(UTC+00:00)

SL-16 R/B - Pass Details

Date: 05 July 2020
Orbit: 839 x 850 km, 71.0° (Epoch: 05 August)

Event Time Altitude Azimuth Distance (km) Brightness Sun altitude
Exits shadow 23:00:52 44° 128° (SE) 1,163 2.5 -22.5°
Maximum altitude 23:01:32 46° 107° (ESE) 1,131 2.6 -22.5°
Drops below altitude 10° 23:06:56 10° 36° (NE) 2,478 5.1 -22.7°
Sets 23:09:28 0° 31° (NNE) 3,419 6.0 -22.9°
